Today's Forecast

This
AfternoonThis Afternoon: A chance of showers and thunderstorms.  Cloudy, with a high near 85. East wind around 7 mph.  Chance of precipitation is 50%. New rainfall amounts of less than a tenth of an inch, except higher amounts possible in thunderstorms.
Chance
T-storms

High: 85 °F

Tonight

Tonight: A chance of showers and thunderstorms.  Cloudy, with a low around 70. Light east wind.  Chance of precipitation is 40%. New rainfall amounts between a tenth and quarter of an inch, except higher amounts possible in thunderstorms.
Chance
T-storms

Low: 70 °F

Weather Almanac

Today In 2021
High: 89.1°F
Low: 66.0°F

Today in 2020
High: 94.5°F
Low: 69.4°F

Columbia Metro Airport

Jun 28th Weather Records
Astronomical Info

Sunrise:
06:16 am

Sunset:
08:38 pm
Civil Twilight    
Dawn:
05:48 am
Dusk:
09:06 pm
Moonrise: 04:36 am
Moonset: 07:42 pm
New MoonJun 28
First Qtr.Jul 06
Full MoonJul 13
Last Qtr.Jul 20
Current PhaseNew Moon 0%

Site menu:

About:

weather.olc.net provides weather information from NOAA, the National Weather Service, Weather Underground, and current weather data collected outside of Orangeburg, SC near Great Branch.

Regional Weather Roundup
Issued by NWS Columbia, SC


000
ASUS42 KCAE 282110
RWRCAE
REGIONAL WEATHER ROUNDUP
NATIONAL WEATHER SERVICE COLUMBIA SC
500 PM EDT TUE JUN 28 2022

NOTE: "FAIR" INDICATES FEW OR NO CLOUDS BELOW 12,000 FEET WITH NO
SIGNIFICANT WEATHER AND/OR OBSTRUCTIONS TO VISIBILITY.

NOT ALL STATIONS ARE QUALITY CONTROLLED BY THE NATIONAL
WEATHER SERVICE. USE DATA WITH CAUTION...ESPECIALLY
DEWPOINT OBSERVATIONS.

SCZ001>059-115-116-135>137-GAZ040-063>065-077-282200-
...UPSTATE SOUTH CAROLINA...

CITY           SKY/WX    TMP DP  RH WIND       PRES   REMARKS
ANDERSON       MOSUNNY   84  65  52 SE8       30.14F
LIBERTY        PTSUNNY   82  64  54 E6        30.16S
SPARTANBURG    CLOUDY    81  61  50 NE7       30.16F
CLEMSON        MOSUNNY   82  63  52 NE6       30.15F
GREENVILLE     MOSUNNY   84  62  47 E6        30.17F
GREENWOOD      PTSUNNY   84  67  56 NE7       30.14F
GREER          MOSUNNY   83  61  47 NE8       30.16F
ROCK HILL      CLOUDY    79  65  62 VRB3      30.18F
LAURENS        CLOUDY    81  68  65 E9        30.15F


...CENTRAL SOUTH CAROLINA...

CITY           SKY/WX    TMP DP  RH WIND       PRES   REMARKS
COLUMBIA APT   CLOUDY    81  71  71 S14       30.14S
COLUMBIA OWENS PTSUNNY   80  71  74 SE9G17    30.15S
MCENTIRE ANGB  PTSUNNY   76  74  93 SE8       30.14S
ORANGEBURG     LGT RAIN  73  73 100 CALM      30.16F FOG
SUMTER SHAW    LGT RAIN  75  72  88 S5        30.15F
NEWBERRY       PTSUNNY   84  66  54 NE12G17   30.16F
AIKEN          PTSUNNY   78  73  85 E7        30.15S
BARNWELL       PTSUNNY   77  70  78 E12       30.14S
MANNING        LGT RAIN  72  70  94 CALM      30.17S
CAMDEN         CLOUDY    82  68  61 S9G21     30.16R
LANCASTER      CLOUDY    81  66  61 E6        30.16F
WINNSBORO      CLOUDY    82  68  61 E8        30.15S


...EASTERN AND COASTAL SOUTH CAROLINA...

CITY           SKY/WX    TMP DP  RH WIND       PRES   REMARKS
MYRTLE BEACH   LGT RAIN  78  73  84 E6        30.17S
N MYRTLE BCH   CLOUDY    79  71  76 E10       30.16S
CONWAY         FAIR      75  72  88 CALM      30.17S
MARION         CLOUDY    79  66  65 SE6       30.15S
HARTSVILLE     CLOUDY    84  64  51 E8        30.15S
FLORENCE       CLOUDY    78  71  79 S15       30.16R
DARLINGTON     CLOUDY    84  68  58 E9        30.16R
CHARLESTON APT CLOUDY    78  72  81 E6        30.14F
MOUNT PLEASANT FAIR      79  77  94 VRB5      30.14F
WALTERBORO     PTSUNNY   73  73 100 E5        30.15F
BEAUFORT       LGT RAIN  79  71  76 NE3       30.13F
HILTON HEAD    PTSUNNY   81  73  78 E7G14     30.14F


...EASTERN GEORGIA...

CITY           SKY/WX    TMP DP  RH WIND       PRES   REMARKS
AUGUSTA BUSH F PTSUNNY   81  70  69 SE8       30.11F
AUGUSTA DANIEL PTSUNNY   83  71  67 SE10      30.12F
THOMSON        PTSUNNY   75  74  96 SW5       30.13R THUNDER
WASHINGTON     CLOUDY    76  67  75 S9        30.14R
CLAXTON        LGT RAIN  78  73  84 E6        30.12S
STATESBORO     LGT RAIN  75  71  89 CALM      30.13R
SAVANNAH       PTSUNNY   80  74  81 E7        30.13S


...SOUTHERN NORTH CAROLINA...

CITY           SKY/WX    TMP DP  RH WIND       PRES   REMARKS
CHARLOTTE      CLOUDY    80  61  52 SE7       30.18F
MONROE         CLOUDY    81  61  50 NE5       30.17F
WADESBORO      PTSUNNY   84  58  40 N5        30.16F
ROCKINGHAM     MOSUNNY   83  60  45 E7        30.16S
RUTHERFORDTON  CLOUDY    79  61  53 SE3       30.19S
ASHEVILLE      PTSUNNY   76  58  53 SE5       30.22F

$$